Weather in Qiziltepa

Uzbekistan     40°02′14″N   64°51′04″E
temp.,
°C
wind,
m/s
gust,
m/s
humid.,
%
clouds,
%
prec.,
mm/h
press.,
hPa
HPBL,
m
13 may, thu
thu1323:00+24ne592692 0.0 1012162
02:00+23ne915365 0.0 1011410
05:00+20nne1018330 0.0 1012517
08:00+21nne1116260 0.0 1013859
11:00+26nne1113170 0.0 10121158
14:00+30nne1112150 0.0 10111847
17:00+31nne1213140 0.0 10102454
20:00+27nne1116130 0.0 1011803
14 may, fri
fri1423:00+23ne1117170 0.0 1013713
02:00+21nne1018200 0.0 1012641
05:00+20nne1120200 0.0 1012637
08:00+22nne1318220 0.0 10131060
11:00+28ne1315150 0.0 10121470
14:00+31ne1213110 0.0 10112053
17:00+32ne1112120 0.0 10092416
20:00+28ne915170 0.0 1011513
15 may, sat
sat1523:00+25ne1116260 0.0 1011686
02:00+22ne1218310 0.0 1011670
05:00+21ne1219320 0.0 1010651
08:00+22nne1215270 0.0 1011677
11:00+26nne1011190 0.0 10101057
14:00+30nne88160 0.0 10091502
17:00+31nne77140 0.0 10071775
20:00+28nne58180 0.0 1007115
16 may, sun
sun1623:00+25nne59230 0.0 1007164
02:00+22nne711290 0.0 1007167
05:00+20nne711310 0.0 1008184
08:00+24nne67260 0.0 1009259
11:00+30nne54170 0.0 1009849
14:00+33n43130 0.0 10072239
17:00+33n53110 0.0 10062512
20:00+29n58130 0.0 1007120
17 may, mon
mon1723:00+26nne45160 0.0 100754
02:00+25nne44180 0.0 100731
05:00+23nne34210 0.0 100725
08:00+27ne34200 0.0 1008230
11:00+32wsw12140 0.0 10081946
14:00+34ssw321096 0.0 10073231
17:00+35s229100 0.0 10062692
20:00+31wnw1212100 0.0 100627